| time (UTC) | temp F | wind direction | speed knots | gust knots | rain 1hr in | rain 24hr in | rain mn in | humidity % | barometer mb |
| 20260510140054 | 54 | 38 | 2.6 | 12.2 | 0.00 | 0.00 | 0.00 | 68 | 1016.5 |
| 20260510135553 | 54 | 42 | 4.3 | 11.3 | 0.00 | 0.00 | 0.00 | 67 | 1016.5 |
| 20260510135053 | 55 | 62 | 2.6 | 8.7 | 0.00 | 0.00 | 0.00 | 68 | 1016.6 |
| 20260510134557 | 55 | 39 | 2.6 | 8.7 | 0.00 | 0.00 | 0.00 | 68 | 1016.6 |
| 20260510134056 | 55 | 26 | 3.5 | 14.8 | 0.00 | 0.00 | 0.00 | 68 | 1016.5 |
| 20260510133552 | 55 | 106 | 2.6 | 14.8 | 0.00 | 0.00 | 0.00 | 68 | 1016.5 |
| 20260510133051 | 55 | 59 | 2.6 | 7.0 | 0.00 | 0.00 | 0.00 | 68 | 1016.6 |
| 20260510132551 | 55 | 348 | 1.7 | 12.2 | 0.00 | 0.00 | 0.00 | 68 | 1016.6 |
| 20260510132051 | 55 | 45 | 3.5 | 9.6 | 0.00 | 0.00 | 0.00 | 69 | 1016.7 |
| 20260510131550 | 54 | 48 | 4.3 | 9.6 | 0.00 | 0.00 | 0.00 | 69 | 1016.6 |
| 20260510131050 | 54 | 50 | 2.6 | 9.6 | 0.00 | 0.00 | 0.00 | 69 | 1016.7 |
| 20260510130550 | 54 | 30 | 3.5 | 10.4 | 0.00 | 0.00 | 0.00 | 69 | 1016.7 |
| 20260510130050 | 55 | 62 | 3.5 | 11.3 | 0.00 | 0.00 | 0.00 | 69 | 1016.8 |
| 20260510125549 | 55 | 43 | 5.2 | 11.3 | 0.00 | 0.00 | 0.00 | 69 | 1016.9 |
| 20260510125049 | 55 | 112 | 4.3 | 12.2 | 0.00 | 0.00 | 0.00 | 69 | 1016.8 |
| 20260510124556 | 55 | 56 | 3.5 | 12.2 | 0.00 | 0.00 | 0.00 | 69 | 1016.8 |
| 20260510124048 | 55 | 38 | 2.6 | 14.8 | 0.00 | 0.00 | 0.00 | 68 | 1016.9 |
| 20260510123549 | 56 | 36 | 3.5 | 14.8 | 0.00 | 0.00 | 0.00 | 67 | 1017.0 |
| 20260510123048 | 56 | 36 | 5.2 | 11.3 | 0.00 | 0.00 | 0.00 | 67 | 1017.1 |
| 20260510122550 | 56 | 42 | 2.6 | 13.0 | 0.00 | 0.00 | 0.00 | 66 | 1017.1 |
| 20260510122047 | 56 | 95 | 3.5 | 13.0 | 0.00 | 0.00 | 0.00 | 66 | 1017.0 |
| 20260510121547 | 56 | 26 | 4.3 | 13.0 | 0.00 | 0.00 | 0.00 | 66 | 1016.9 |
| 20260510121047 | 56 | 45 | 5.2 | 14.8 | 0.00 | 0.00 | 0.00 | 66 | 1017.0 |
| 20260510120551 | 56 | 53 | 4.3 | 14.8 | 0.00 | 0.00 | 0.00 | 66 | 1017.0 |
| 20260510120046 | 57 | 37 | 7.8 | 12.2 | 0.00 | 0.00 | 0.00 | 65 | 1017.1 |
| 20260510115546 | 57 | 44 | 5.2 | 10.4 | 0.00 | 0.00 | 0.00 | 65 | 1017.0 |
| 20260510115046 | 57 | 64 | 2.6 | 10.4 | 0.00 | 0.00 | 0.00 | 65 | 1017.1 |
| 20260510114552 | 57 | 18 | 3.5 | 10.4 | 0.00 | 0.00 | 0.00 | 66 | 1017.1 |
| 20260510114043 | 57 | 24 | 2.6 | 11.3 | 0.00 | 0.00 | 0.00 | 66 | 1017.1 |
| 20260510113542 | 57 | 43 | 4.3 | 11.3 | 0.00 | 0.00 | 0.00 | 66 | 1017.1 |
| 20260510113042 | 56 | 41 | 6.1 | 13.0 | 0.00 | 0.00 | 0.00 | 66 | 1017.2 |
| 20260510112543 | 56 | 53 | 7.0 | 13.0 | 0.00 | 0.00 | 0.00 | 66 | 1017.3 |
| 20260510112039 | 56 | 51 | 4.3 | 11.3 | 0.00 | 0.00 | 0.00 | 67 | 1017.2 |
| 20260510111540 | 56 | 74 | 4.3 | 13.9 | 0.00 | 0.00 | 0.00 | 67 | 1017.3 |
| 20260510111037 | 56 | 5 | 4.3 | 14.8 | 0.00 | 0.00 | 0.00 | 67 | 1017.3 |
| 20260510110536 | 56 | 29 | 5.2 | 14.8 | 0.00 | 0.00 | 0.00 | 67 | 1017.4 |
| 20260510110034 | 56 | 51 | 4.3 | 11.3 | 0.00 | 0.00 | 0.00 | 67 | 1017.4 |
| 20260510105534 | 56 | 74 | 6.1 | 10.4 | 0.00 | 0.00 | 0.00 | 67 | 1017.4 |
| 20260510105032 | 56 | 17 | 6.1 | 10.4 | 0.00 | 0.00 | 0.00 | 67 | 1017.5 |
| 20260510104530 | 56 | 51 | 2.6 | 13.0 | 0.00 | 0.00 | 0.00 | 68 | 1017.5 |
| 20260510104028 | 56 | 61 | 5.2 | 13.0 | 0.00 | 0.00 | 0.00 | 68 | 1017.5 |
| 20260510103527 | 56 | 50 | 3.5 | 10.4 | 0.00 | 0.00 | 0.00 | 68 | 1017.6 |
| 20260510103025 | 55 | 69 | 2.6 | 10.4 | 0.00 | 0.00 | 0.00 | 69 | 1017.5 |
| 20260510102527 | 55 | 69 | 4.3 | 13.0 | 0.00 | 0.00 | 0.00 | 69 | 1017.5 |
| 20260510102027 | 55 | 36 | 5.2 | 13.0 | 0.00 | 0.00 | 0.00 | 69 | 1017.5 |
| 20260510101524 | 55 | 62 | 2.6 | 9.6 | 0.00 | 0.00 | 0.00 | 69 | 1017.5 |
| 20260510101023 | 55 | 55 | 2.6 | 9.6 | 0.00 | 0.00 | 0.00 | 70 | 1017.5 |
| 20260510100522 | 55 | 132 | 3.5 | 10.4 | 0.00 | 0.00 | 0.00 | 69 | 1017.5 |
| 20260510100022 | 55 | 202 | 3.5 | 10.4 | 0.00 | 0.00 | 0.00 | 70 | 1017.5 |
| 20260510095524 | 55 | 27 | 4.3 | 13.9 | 0.00 | 0.00 | 0.00 | 70 | 1017.5 |
| 20260510095018 | 55 | 355 | 6.1 | 13.9 | 0.00 | 0.00 | 0.00 | 69 | 1017.5 |
| 20260510094534 | 55 | 76 | 3.5 | 11.3 | 0.00 | 0.00 | 0.00 | 69 | 1017.5 |
| 20260510094015 | 55 | 61 | 3.5 | 12.2 | 0.00 | 0.00 | 0.00 | 69 | 1017.4 |
| 20260510093514 | 55 | 86 | 2.6 | 12.2 | 0.00 | 0.00 | 0.00 | 70 | 1017.5 |
| 20260510093012 | 55 | 51 | 5.2 | 12.2 | 0.00 | 0.00 | 0.00 | 69 | 1017.6 |
| 20260510092515 | 55 | 31 | 5.2 | 12.2 | 0.00 | 0.00 | 0.00 | 69 | 1017.6 |
| 20260510092008 | 55 | 29 | 3.5 | 10.4 | 0.00 | 0.00 | 0.00 | 69 | 1017.7 |
| 20260510091508 | 55 | 48 | 4.3 | 13.9 | 0.00 | 0.00 | 0.00 | 70 | 1017.6 |
| 20260510091006 | 55 | 54 | 3.5 | 13.9 | 0.00 | 0.00 | 0.00 | 70 | 1017.7 |
| 20260510090505 | 55 | 42 | 2.6 | 8.7 | 0.00 | 0.00 | 0.00 | 71 | 1017.8 |
| 20260510090007 | 54 | 77 | 3.5 | 8.7 | 0.00 | 0.00 | 0.00 | 71 | 1017.7 |
| 20260510085503 | 54 | 36 | 2.6 | 9.6 | 0.00 | 0.00 | 0.00 | 72 | 1017.7 |
| 20260510085104 | 54 | 53 | 3.5 | 9.6 | 0.00 | 0.00 | 0.00 | 72 | 1017.8 |
| 20260510084519 | 54 | 46 | 3.5 | 10.4 | 0.00 | 0.00 | 0.00 | 72 | 1017.8 |
| 20260510083557 | 54 | 46 | 6.1 | 12.2 | 0.00 | 0.00 | 0.00 | 73 | 1017.9 |
| 20260510083106 | 53 | 37 | 5.2 | 11.3 | 0.00 | 0.00 | 0.00 | 73 | 1017.9 |
| 20260510082555 | 53 | 51 | 2.6 | 9.6 | 0.00 | 0.00 | 0.00 | 74 | 1017.9 |
| 20260510082055 | 53 | 53 | 2.6 | 9.6 | 0.00 | 0.00 | 0.00 | 74 | 1017.9 |
| 20260510081555 | 53 | 39 | 2.6 | 11.3 | 0.00 | 0.00 | 0.00 | 74 | 1018.0 |
| 20260510081055 | 53 | 350 | 3.5 | 11.3 | 0.00 | 0.00 | 0.00 | 75 | 1017.9 |
| 20260510080555 | 53 | 44 | 1.7 | 12.2 | 0.00 | 0.00 | 0.00 | 75 | 1017.9 |
| 20260510080056 | 52 | 46 | 6.1 | 12.2 | 0.00 | 0.00 | 0.00 | 75 | 1017.9 |
| 20260510075653 | 53 | 42 | 4.3 | 12.2 | 0.00 | 0.00 | 0.00 | 75 | 1017.8 |
| 20260510075053 | 52 | 70 | 1.7 | 11.3 | 0.00 | 0.00 | 0.00 | 76 | 1017.8 |
| 20260510074553 | 52 | 38 | 5.2 | 13.0 | 0.00 | 0.00 | 0.00 | 75 | 1017.8 |
| 20260510074052 | 52 | 26 | 2.6 | 11.3 | 0.00 | 0.00 | 0.00 | 76 | 1017.9 |
| 20260510073552 | 52 | 75 | 3.5 | 11.3 | 0.00 | 0.00 | 0.00 | 76 | 1017.8 |
| 20260510073056 | 52 | 45 | 2.6 | 11.3 | 0.00 | 0.00 | 0.00 | 77 | 1017.9 |
| 20260510072551 | 52 | 106 | 1.7 | 10.4 | 0.00 | 0.00 | 0.00 | 77 | 1017.8 |
| 20260510072049 | 52 | 88 | 3.5 | 11.3 | 0.00 | 0.00 | 0.00 | 77 | 1017.9 |
| 20260510071550 | 51 | 49 | 3.5 | 11.3 | 0.00 | 0.00 | 0.00 | 77 | 1017.9 |
| 20260510071048 | 51 | 92 | 2.6 | 10.4 | 0.00 | 0.00 | 0.00 | 77 | 1017.9 |
| 20260510070548 | 51 | 61 | 3.5 | 13.0 | 0.00 | 0.00 | 0.00 | 77 | 1017.8 |
| 20260510070048 | 51 | 40 | 4.3 | 13.0 | 0.00 | 0.00 | 0.00 | 77 | 1017.9 |
| 20260510065549 | 51 | 50 | 1.7 | 9.6 | 0.00 | 0.00 | 0.00 | 78 | 1017.8 |
| 20260510065046 | 51 | 86 | 2.6 | 8.7 | 0.00 | 0.00 | 0.00 | 78 | 1017.8 |
| 20260510064549 | 51 | 51 | 2.6 | 11.3 | 0.00 | 0.00 | 0.00 | 78 | 1017.8 |
| 20260510064044 | 51 | 54 | 2.6 | 11.3 | 0.00 | 0.00 | 0.00 | 79 | 1017.9 |
| 20260510063544 | 51 | 233 | 2.6 | 8.7 | 0.00 | 0.00 | 0.00 | 79 | 1017.9 |
| 20260510063042 | 51 | 54 | 1.7 | 9.6 | 0.00 | 0.00 | 0.00 | 79 | 1017.8 |
| 20260510062542 | 51 | 37 | 3.5 | 12.2 | 0.00 | 0.00 | 0.00 | 79 | 1017.8 |
| 20260510062041 | 51 | 50 | 5.2 | 12.2 | 0.00 | 0.00 | 0.00 | 79 | 1017.8 |
| 20260510061540 | 50 | 57 | 1.7 | 9.6 | 0.00 | 0.00 | 0.00 | 79 | 1017.8 |
| 20260510061040 | 50 | 38 | 4.3 | 9.6 | 0.00 | 0.00 | 0.00 | 79 | 1017.7 |
| 20260510060540 | 50 | 69 | 2.6 | 8.7 | 0.00 | 0.00 | 0.00 | 79 | 1017.7 |
| 20260510060043 | 50 | 89 | 3.5 | 8.7 | 0.00 | 0.00 | 0.00 | 79 | 1017.7 |
| 20260510055537 | 50 | 67 | 3.5 | 11.3 | 0.00 | 0.00 | 0.00 | 79 | 1017.6 |
| 20260510055037 | 50 | 44 | 3.5 | 10.4 | 0.00 | 0.00 | 0.00 | 79 | 1017.6 |
| 20260510054540 | 50 | 54 | 2.6 | 8.7 | 0.00 | 0.00 | 0.00 | 80 | 1017.6 |
| 20260510054036 | 50 | 21 | 4.3 | 9.6 | 0.00 | 0.00 | 0.00 | 80 | 1017.6 |
| 20260510053534 | 50 | 53 | 2.6 | 10.4 | 0.00 | 0.00 | 0.00 | 80 | 1017.5 |
| 20260510053033 | 50 | 56 | 3.5 | 10.4 | 0.00 | 0.00 | 0.00 | 80 | 1017.5 |
| 20260510052532 | 50 | 9 | 2.6 | 8.7 | 0.00 | 0.00 | 0.00 | 81 | 1017.5 |
| 20260510052031 | 50 | 17 | 1.7 | 7.0 | 0.00 | 0.00 | 0.00 | 81 | 1017.6 |
| 20260510051534 | 50 | 60 | 2.6 | 7.8 | 0.00 | 0.00 | 0.00 | 81 | 1017.4 |
| 20260510051029 | 49 | 76 | 2.6 | 8.7 | 0.00 | 0.00 | 0.00 | 81 | 1017.5 |
| 20260510050532 | 49 | 81 | 1.7 | 8.7 | 0.00 | 0.00 | 0.00 | 82 | 1017.5 |
| 20260510050027 | 49 | 99 | 1.7 | 7.8 | 0.00 | 0.00 | 0.00 | 82 | 1017.5 |
| 20260510045531 | 49 | 40 | 2.6 | 7.8 | 0.00 | 0.00 | 0.00 | 82 | 1017.4 |
| 20260510045026 | 49 | 61 | 3.5 | 7.8 | 0.00 | 0.00 | 0.00 | 82 | 1017.5 |
| 20260510044526 | 49 | 44 | 3.5 | 7.8 | 0.00 | 0.00 | 0.00 | 82 | 1017.5 |
| 20260510044125 | 49 | 49 | 1.7 | 8.7 | 0.00 | 0.00 | 0.00 | 82 | 1017.5 |
| 20260510043525 | 49 | 38 | 2.6 | 8.7 | 0.00 | 0.00 | 0.00 | 83 | 1017.5 |
| 20260510043027 | 49 | 65 | 2.6 | 6.1 | 0.00 | 0.00 | 0.00 | 83 | 1017.6 |
| 20260510042523 | 49 | 45 | 3.5 | 9.6 | 0.00 | 0.00 | 0.00 | 83 | 1017.6 |
| 20260510042021 | 49 | 44 | 2.6 | 10.4 | 0.00 | 0.00 | 0.00 | 83 | 1017.6 |
| 20260510041522 | 49 | 56 | 2.6 | 10.4 | 0.00 | 0.00 | 0.00 | 83 | 1017.6 |
| 20260510041021 | 49 | 33 | 2.6 | 9.6 | 0.00 | 0.00 | 0.00 | 83 | 1017.6 |
| 20260510040521 | 49 | 45 | 2.6 | 9.6 | 0.00 | 0.00 | 0.00 | 83 | 1017.7 |
| 20260510040020 | 49 | 34 | 3.5 | 9.6 | 0.00 | 0.00 | 0.00 | 83 | 1017.7 |
| 20260510035519 | 49 | 22 | 4.3 | 8.7 | 0.00 | 0.00 | 0.00 | 83 | 1017.8 |
| 20260510035019 | 49 | 44 | 3.5 | 10.4 | 0.00 | 0.00 | 0.00 | 83 | 1017.7 |
| 20260510034522 | 49 | 41 | 3.5 | 9.6 | 0.00 | 0.00 | 0.00 | 83 | 1017.8 |
| 20260510034017 | 49 | 42 | 1.7 | 7.0 | 0.00 | 0.00 | 0.00 | 83 | 1017.9 |
| 20260510033520 | 49 | 44 | 2.6 | 7.0 | 0.00 | 0.00 | 0.00 | 82 | 1017.9 |
| 20260510033016 | 49 | 43 | 2.6 | 7.0 | 0.00 | 0.00 | 0.00 | 82 | 1017.9 |
| 20260510032516 | 49 | 34 | 2.6 | 9.6 | 0.00 | 0.00 | 0.00 | 82 | 1017.9 |
| 20260510032015 | 49 | 30 | 2.6 | 9.6 | 0.00 | 0.00 | 0.00 | 82 | 1018.1 |
| 20260510031515 | 49 | 130 | 3.5 | 11.3 | 0.00 | 0.00 | 0.00 | 82 | 1018.0 |
| 20260510031014 | 49 | 32 | 3.5 | 11.3 | 0.00 | 0.00 | 0.00 | 82 | 1017.9 |
| 20260510030521 | 49 | 50 | 2.6 | 8.7 | 0.00 | 0.00 | 0.00 | 82 | 1018.0 |
| 20260510030018 | 50 | 80 | 2.6 | 9.6 | 0.00 | 0.00 | 0.00 | 81 | 1018.0 |
| 20260510025515 | 50 | 57 | 5.2 | 9.6 | 0.00 | 0.00 | 0.00 | 81 | 1018.1 |
| 20260510025013 | 50 | 79 | 3.5 | 11.3 | 0.00 | 0.00 | 0.00 | 81 | 1018.1 |
| 20260510024512 | 50 | 20 | 5.2 | 11.3 | 0.00 | 0.00 | 0.00 | 81 | 1018.0 |
| 20260510024011 | 50 | 49 | 1.7 | 11.3 | 0.00 | 0.00 | 0.00 | 80 | 1018.0 |
| 20260510023510 | 50 | 67 | 2.6 | 9.6 | 0.00 | 0.00 | 0.00 | 80 | 1018.1 |
| 20260510022508 | 50 | 60 | 4.3 | 10.4 | 0.00 | 0.00 | 0.00 | 79 | 1018.1 |
| 20260510022008 | 50 | 63 | 3.5 | 9.6 | 0.00 | 0.00 | 0.00 | 79 | 1018.0 |
| 20260510021507 | 50 | 51 | 4.3 | 9.6 | 0.00 | 0.00 | 0.00 | 79 | 1018.0 |
| 20260510021005 | 50 | 32 | 3.5 | 9.6 | 0.00 | 0.00 | 0.00 | 79 | 1018.1 |
| 20260510020504 | 50 | 53 | 4.3 | 9.6 | 0.00 | 0.00 | 0.00 | 78 | 1018.1 |
| 20260510020005 | 51 | 38 | 2.6 | 7.8 | 0.00 | 0.00 | 0.00 | 78 | 1018.0 |
| 20260510015503 | 51 | 53 | 3.5 | 8.7 | 0.00 | 0.00 | 0.00 | 77 | 1017.9 |
| 20260510015002 | 51 | 53 | 3.5 | 9.6 | 0.00 | 0.00 | 0.00 | 77 | 1017.9 |
| 20260510014502 | 51 | 51 | 4.3 | 9.6 | 0.00 | 0.00 | 0.00 | 76 | 1018.0 |
| 20260510014001 | 51 | 17 | 3.5 | 7.8 | 0.00 | 0.00 | 0.00 | 76 | 1018.0 |
| 20260510013601 | 51 | 40 | 3.5 | 7.8 | 0.00 | 0.00 | 0.00 | 76 | 1018.0 |
| 20260510013104 | 51 | 40 | 1.7 | 7.8 | 0.00 | 0.00 | 0.00 | 77 | 1018.2 |
| 20260510012558 | 51 | 59 | 1.7 | 7.8 | 0.00 | 0.00 | 0.00 | 77 | 1018.3 |
| 20260510012058 | 52 | 61 | 0.0 | 7.8 | 0.00 | 0.00 | 0.00 | 76 | 1018.2 |
| 20260510011558 | 52 | 46 | 0.9 | 7.8 | 0.00 | 0.00 | 0.00 | 76 | 1018.1 |
| 20260510011056 | 52 | 62 | 1.7 | 9.6 | 0.00 | 0.00 | 0.00 | 76 | 1018.1 |
| 20260510010557 | 52 | 61 | 0.9 | 9.6 | 0.00 | 0.00 | 0.00 | 75 | 1018.1 |
| 20260510010058 | 52 | 29 | 1.7 | 10.4 | 0.00 | 0.00 | 0.00 | 75 | 1018.1 |
| 20260510005554 | 52 | 55 | 1.7 | 10.4 | 0.00 | 0.00 | 0.00 | 75 | 1018.1 |
| 20260510005058 | 52 | 68 | 1.7 | 6.1 | 0.00 | 0.00 | 0.00 | 74 | 1017.9 |
| 20260510004553 | 52 | 290 | 1.7 | 7.8 | 0.00 | 0.00 | 0.00 | 73 | 1018.0 |
| 20260510004053 | 52 | 59 | 2.6 | 7.8 | 0.00 | 0.00 | 0.00 | 73 | 1017.9 |
| 20260510003552 | 52 | 59 | 2.6 | 7.8 | 0.00 | 0.00 | 0.00 | 73 | 1017.9 |
| 20260510003051 | 52 | 79 | 2.6 | 7.8 | 0.00 | 0.00 | 0.00 | 72 | 1017.9 |
| 20260510002549 | 53 | 43 | 0.9 | 8.7 | 0.00 | 0.00 | 0.00 | 72 | 1018.0 |
| 20260510002049 | 53 | 49 | 1.7 | 8.7 | 0.00 | 0.00 | 0.00 | 71 | 1018.1 |
| 20260510001549 | 53 | 73 | 1.7 | 7.8 | 0.00 | 0.00 | 0.00 | 71 | 1018.3 |
| 20260510001048 | 53 | 69 | 1.7 | 7.0 | 0.00 | 0.00 | 0.00 | 71 | 1018.1 |
| 20260510000647 | 53 | 53 | 0.9 | 7.8 | 0.00 | 0.00 | 0.00 | 70 | 1018.1 |
| 20260510000046 | 53 | 61 | 1.7 | 9.6 | 0.00 | 0.00 | 0.00 | 70 | 1018.1 |
| 20260509235547 | 53 | 55 | 3.5 | 9.6 | 0.00 | 0.00 | 0.00 | 70 | 1018.1 |
| 20260509235046 | 53 | 63 | 0.9 | 7.8 | 0.00 | 0.00 | 0.00 | 70 | 1018.1 |
| 20260509234545 | 53 | 80 | 1.7 | 7.8 | 0.00 | 0.00 | 0.00 | 71 | 1018.0 |
| 20260509234044 | 54 | 29 | 0.0 | 5.2 | 0.00 | 0.00 | 0.00 | 71 | 1018.1 |
| 20260509233549 | 54 | 62 | 1.7 | 5.2 | 0.00 | 0.00 | 0.00 | 71 | 1017.9 |
| 20260509233043 | 54 | 40 | 0.0 | 5.2 | 0.00 | 0.00 | 0.00 | 71 | 1017.9 |
| 20260509232544 | 54 | 49 | 0.9 | 5.2 | 0.00 | 0.00 | 0.00 | 71 | 1018.0 |
| 20260509232042 | 54 | 74 | 1.7 | 5.2 | 0.00 | 0.00 | 0.00 | 71 | 1018.1 |
| 20260509231544 | 54 | 26 | 0.9 | 7.0 | 0.00 | 0.00 | 0.00 | 70 | 1018.2 |
| 20260509231040 | 54 | 26 | 1.7 | 5.2 | 0.00 | 0.00 | 0.00 | 70 | 1018.1 |
| 20260509230539 | 54 | 39 | 1.7 | 6.1 | 0.00 | 0.00 | 0.00 | 70 | 1018.2 |
| 20260509230038 | 54 | 51 | 0.9 | 6.1 | 0.00 | 0.00 | 0.00 | 69 | 1018.2 |
| 20260509225538 | 54 | 67 | 0.0 | 2.6 | 0.00 | 0.00 | 0.00 | 68 | 1018.1 |
| 20260509225040 | 54 | 76 | 0.0 | 2.6 | 0.00 | 0.00 | 0.00 | 68 | 1018.0 |
| 20260509224538 | 54 | 62 | 0.9 | 6.1 | 0.00 | 0.00 | 0.00 | 67 | 1018.1 |
| 20260509224041 | 54 | 82 | 1.7 | 6.1 | 0.00 | 0.00 | 0.00 | 67 | 1018.1 |
| 20260509223539 | 54 | 74 | 0.9 | 6.1 | 0.00 | 0.00 | 0.00 | 66 | 1018.0 |
| 20260509223038 | 54 | 73 | 0.9 | 6.1 | 0.00 | 0.00 | 0.00 | 65 | 1018.1 |
| 20260509222539 | 55 | 46 | 1.7 | 4.3 | 0.00 | 0.00 | 0.00 | 65 | 1018.0 |
| 20260509222037 | 55 | 43 | 0.9 | 3.5 | 0.00 | 0.00 | 0.00 | 64 | 1018.1 |
| 20260509221537 | 55 | 69 | 0.0 | 8.7 | 0.00 | 0.00 | 0.00 | 64 | 1018.0 |
| 20260509221037 | 55 | 34 | 2.6 | 8.7 | 0.00 | 0.00 | 0.00 | 63 | 1018.0 |
| 20260509220537 | 55 | 5 | 0.9 | 6.1 | 0.00 | 0.00 | 0.00 | 63 | 1018.0 |
| 20260509220038 | 55 | 60 | 0.0 | 3.5 | 0.00 | 0.00 | 0.00 | 62 | 1018.0 |
| 20260509215536 | 55 | 44 | 0.0 | 3.5 | 0.00 | 0.00 | 0.00 | 62 | 1018.1 |
| 20260509215036 | 55 | 92 | 0.0 | 4.3 | 0.00 | 0.00 | 0.00 | 62 | 1018.1 |
| 20260509214536 | 55 | 41 | 0.0 | 4.3 | 0.00 | 0.00 | 0.00 | 61 | 1018.1 |
| 20260509214036 | 56 | 64 | 0.0 | 3.5 | 0.00 | 0.00 | 0.00 | 61 | 1018.2 |
| 20260509213536 | 56 | 99 | 0.0 | 3.5 | 0.00 | 0.00 | 0.00 | 60 | 1018.1 |
| 20260509213036 | 56 | 9 | 0.0 | 3.5 | 0.00 | 0.00 | 0.00 | 60 | 1018.1 |
| 20260509212535 | 56 | 5 | 0.0 | 3.5 | 0.00 | 0.00 | 0.00 | 60 | 1018.1 |
| 20260509212035 | 56 | 53 | 0.0 | 5.2 | 0.00 | 0.00 | 0.00 | 59 | 1017.8 |
| 20260509211535 | 56 | 97 | 0.9 | 5.2 | 0.00 | 0.00 | 0.00 | 59 | 1017.9 |
| 20260509211037 | 56 | 84 | 0.0 | 4.3 | 0.00 | 0.00 | 0.00 | 58 | 1017.8 |
| 20260509210536 | 57 | 324 | 0.0 | 3.5 | 0.00 | 0.00 | 0.00 | 58 | 1017.8 |
| 20260509210040 | 57 | 38 | 0.0 | 3.5 | 0.00 | 0.00 | 0.00 | 57 | 1017.6 |
| 20260509205534 | 57 | 71 | 0.0 | 7.0 | 0.00 | 0.00 | 0.00 | 56 | 1017.6 |
| 20260509205034 | 57 | 65 | 0.9 | 7.0 | 0.00 | 0.00 | 0.00 | 56 | 1017.7 |
| 20260509204540 | 57 | 71 | 0.9 | 8.7 | 0.00 | 0.00 | 0.00 | 56 | 1017.7 |
| 20260509204034 | 57 | 48 | 0.9 | 8.7 | 0.00 | 0.00 | 0.00 | 55 | 1017.7 |
| 20260509203535 | 57 | 81 | 0.9 | 4.3 | 0.00 | 0.00 | 0.00 | 54 | 1017.6 |
| 20260509203040 | 58 | 80 | 0.0 | 4.3 | 0.00 | 0.00 | 0.00 | 54 | 1017.7 |
| 20260509202535 | 58 | 42 | 0.0 | 4.3 | 0.00 | 0.00 | 0.00 | 53 | 1017.6 |
| 20260509202035 | 58 | 33 | 1.7 | 4.3 | 0.00 | 0.00 | 0.00 | 53 | 1017.5 |
| 20260509201533 | 58 | 51 | 0.9 | 6.1 | 0.00 | 0.00 | 0.00 | 52 | 1017.5 |
| 20260509201033 | 58 | 74 | 0.9 | 6.1 | 0.00 | 0.00 | 0.00 | 52 | 1017.5 |
| 20260509200533 | 58 | 161 | 0.0 | 3.5 | 0.00 | 0.00 | 0.00 | 51 | 1017.6 |
| 20260509200033 | 59 | 30 | 0.0 | 1.7 | 0.00 | 0.00 | 0.00 | 50 | 1017.5 |
| 20260509195532 | 59 | 314 | 0.0 | 7.0 | 0.00 | 0.00 | 0.00 | 50 | 1017.4 |
| 20260509195033 | 59 | 53 | 0.9 | 7.0 | 0.00 | 0.00 | 0.00 | 49 | 1017.4 |
| 20260509194532 | 59 | 63 | 0.9 | 5.2 | 0.00 | 0.00 | 0.00 | 49 | 1017.4 |
| 20260509194032 | 59 | 92 | 0.0 | 5.2 | 0.00 | 0.00 | 0.00 | 48 | 1017.4 |
| 20260509193533 | 59 | 291 | 0.9 | 5.2 | 0.00 | 0.00 | 0.00 | 48 | 1017.3 |
| 20260509193037 | 59 | 51 | 1.7 | 8.7 | 0.00 | 0.00 | 0.00 | 47 | 1017.1 |
| 20260509192535 | 60 | 55 | 0.9 | 7.0 | 0.00 | 0.00 | 0.00 | 47 | 1017.0 |
| 20260509192032 | 60 | 327 | 0.9 | 6.1 | 0.00 | 0.00 | 0.00 | 47 | 1016.9 |
| 20260509191538 | 60 | 117 | 0.9 | 8.7 | 0.00 | 0.00 | 0.00 | 47 | 1016.9 |
| 20260509191032 | 60 | 28 | 1.7 | 8.7 | 0.00 | 0.00 | 0.00 | 46 | 1017.0 |
| 20260509190530 | 60 | 54 | 1.7 | 5.2 | 0.00 | 0.00 | 0.00 | 47 | 1017.1 |
| 20260509190031 | 61 | 26 | 0.9 | 6.1 | 0.00 | 0.00 | 0.00 | 47 | 1017.0 |
| 20260509185530 | 61 | 208 | 0.9 | 7.8 | 0.00 | 0.00 | 0.00 | 48 | 1017.0 |
| 20260509185030 | 61 | 53 | 2.6 | 7.8 | 0.00 | 0.00 | 0.00 | 47 | 1017.1 |
| 20260509184533 | 61 | 55 | 0.9 | 9.6 | 0.00 | 0.00 | 0.00 | 48 | 1017.0 |
| 20260509184029 | 62 | 141 | 1.7 | 8.7 | 0.00 | 0.00 | 0.00 | 47 | 1017.0 |
| 20260509183529 | 62 | 68 | 2.6 | 10.4 | 0.00 | 0.00 | 0.00 | 47 | 1016.9 |
| 20260509183031 | 62 | 69 | 1.7 | 10.4 | 0.00 | 0.00 | 0.00 | 47 | 1016.9 |
| 20260509182532 | 62 | 67 | 1.7 | 7.0 | 0.00 | 0.00 | 0.00 | 47 | 1017.0 |
| 20260509182028 | 62 | 96 | 0.9 | 7.8 | 0.00 | 0.00 | 0.00 | 47 | 1016.9 |
| 20260509181528 | 63 | 37 | 0.9 | 7.8 | 0.00 | 0.00 | 0.00 | 47 | 1017.0 |
| 20260509181028 | 63 | 60 | 0.9 | 7.8 | 0.00 | 0.00 | 0.00 | 47 | 1017.0 |
| 20260509180528 | 63 | 42 | 1.7 | 7.8 | 0.00 | 0.00 | 0.00 | 47 | 1017.0 |
| 20260509180028 | 63 | 92 | 0.9 | 7.0 | 0.00 | 0.00 | 0.00 | 46 | 1016.9 |
| 20260509175530 | 63 | 167 | 1.7 | 7.0 | 0.00 | 0.00 | 0.00 | 46 | 1016.8 |
| 20260509175027 | 64 | 276 | 0.9 | 7.8 | 0.00 | 0.00 | 0.00 | 45 | 1016.6 |
| 20260509174527 | 64 | 126 | 1.7 | 7.8 | 0.00 | 0.00 | 0.00 | 45 | 1016.6 |
| 20260509174026 | 64 | 186 | 0.0 | 11.3 | 0.00 | 0.00 | 0.00 | 45 | 1016.6 |
| 20260509173525 | 65 | 168 | 2.6 | 11.3 | 0.00 | 0.00 | 0.00 | 44 | 1016.6 |
| 20260509173026 | 65 | 160 | 1.7 | 8.7 | 0.00 | 0.00 | 0.00 | 44 | 1016.7 |
| 20260509172525 | 66 | 73 | 1.7 | 10.4 | 0.00 | 0.00 | 0.00 | 45 | 1016.7 |
| 20260509172026 | 66 | 348 | 0.0 | 10.4 | 0.00 | 0.00 | 0.00 | 45 | 1016.7 |
| 20260509171525 | 67 | 15 | 0.9 | 6.1 | 0.00 | 0.00 | 0.00 | 44 | 1016.8 |
| 20260509171026 | 67 | 124 | 2.6 | 9.6 | 0.00 | 0.00 | 0.00 | 43 | 1016.8 |
| 20260509170523 | 68 | 324 | 2.6 | 9.6 | 0.00 | 0.00 | 0.00 | 41 | 1016.8 |
| 20260509170022 | 68 | 130 | 2.6 | 7.0 | 0.00 | 0.00 | 0.00 | 40 | 1016.9 |
| 20260509165522 | 69 | 43 | 0.9 | 7.0 | 0.00 | 0.00 | 0.00 | 41 | 1016.9 |
| 20260509165022 | 69 | 206 | 0.9 | 7.8 | 0.00 | 0.00 | 0.00 | 40 | 1016.9 |
| 20260509164532 | 70 | 94 | 1.7 | 8.7 | 0.00 | 0.00 | 0.00 | 40 | 1017.0 |
| 20260509164023 | 70 | 169 | 2.6 | 8.7 | 0.00 | 0.00 | 0.00 | 39 | 1016.8 |
| 20260509163518 | 71 | 38 | 1.7 | 7.0 | 0.00 | 0.00 | 0.00 | 38 | 1016.7 |
| 20260509163018 | 71 | 34 | 1.7 | 7.0 | 0.00 | 0.00 | 0.00 | 39 | 1016.6 |
| 20260509162517 | 71 | 69 | 1.7 | 7.8 | 0.00 | 0.00 | 0.00 | 39 | 1016.5 |
| 20260509162022 | 72 | 106 | 1.7 | 7.0 | 0.00 | 0.00 | 0.00 | 39 | 1016.6 |
| 20260509161516 | 72 | 40 | 0.9 | 10.4 | 0.00 | 0.00 | 0.00 | 39 | 1016.6 |
| 20260509161017 | 72 | 65 | 2.6 | 10.4 | 0.00 | 0.00 | 0.00 | 40 | 1016.7 |
| 20260509160516 | 72 | 69 | 0.9 | 8.7 | 0.00 | 0.00 | 0.00 | 39 | 1016.8 |
| 20260509160017 | 72 | 71 | 2.6 | 8.7 | 0.00 | 0.00 | 0.00 | 39 | 1016.9 |
| 20260509155515 | 72 | 81 | 1.7 | 7.0 | 0.00 | 0.00 | 0.00 | 41 | 1016.9 |
| 20260509155018 | 72 | 92 | 1.7 | 7.0 | 0.00 | 0.00 | 0.00 | 39 | 1016.8 |
| 20260509154515 | 73 | 93 | 0.9 | 5.2 | 0.00 | 0.00 | 0.00 | 40 | 1016.9 |
| 20260509154016 | 73 | 92 | 0.9 | 7.8 | 0.00 | 0.00 | 0.00 | 40 | 1017.0 |
| 20260509153519 | 73 | 90 | 2.6 | 7.8 | 0.00 | 0.00 | 0.00 | 39 | 1017.0 |
| 20260509153014 | 73 | 323 | 1.7 | 5.2 | 0.00 | 0.00 | 0.00 | 39 | 1017.0 |
| 20260509152514 | 74 | 161 | 0.9 | 7.8 | 0.00 | 0.00 | 0.00 | 40 | 1017.0 |
| 20260509152014 | 73 | 181 | 1.7 | 7.8 | 0.00 | 0.00 | 0.00 | 40 | 1016.9 |
| 20260509151614 | 73 | 75 | 2.6 | 7.8 | 0.00 | 0.00 | 0.00 | 39 | 1017.0 |
| 20260509151013 | 73 | 46 | 2.6 | 10.4 | 0.00 | 0.00 | 0.00 | 39 | 1017.0 |
| 20260509150513 | 73 | 101 | 1.7 | 9.6 | 0.00 | 0.00 | 0.00 | 39 | 1017.0 |
| 20260509150012 | 73 | 49 | 5.2 | 10.4 | 0.00 | 0.00 | 0.00 | 38 | 1017.0 |
| 20260509145512 | 73 | 43 | 2.6 | 10.4 | 0.00 | 0.00 | 0.00 | 39 | 1017.0 |
| 20260509145012 | 73 | 252 | 0.9 | 7.8 | 0.00 | 0.00 | 0.00 | 40 | 1017.0 |
| 20260509144511 | 73 | 79 | 2.6 | 7.8 | 0.00 | 0.00 | 0.00 | 39 | 1017.0 |
| 20260509144111 | 74 | 213 | 1.7 | 9.6 | 0.00 | 0.00 | 0.00 | 38 | 1016.9 |
| 20260509143509 | 74 | 17 | 1.7 | 10.4 | 0.00 | 0.00 | 0.00 | 39 | 1016.8 |
| 20260509143009 | 74 | 46 | 1.7 | 10.4 | 0.00 | 0.00 | 0.00 | 39 | 1016.7 |
| 20260509142508 | 74 | 67 | 0.9 | 7.8 | 0.00 | 0.00 | 0.00 | 39 | 1016.6 |
| 20260509142009 | 74 | 159 | 1.7 | 10.4 | 0.00 | 0.00 | 0.00 | 38 | 1016.6 |
| 20260509141509 | 74 | 49 | 1.7 | 10.4 | 0.00 | 0.00 | 0.00 | 39 | 1016.6 |
| 20260509141012 | 74 | 156 | 1.7 | 7.8 | 0.00 | 0.00 | 0.00 | 39 | 1016.6 |